Location: Oberkirch
(48.5323°N, 8.0787°E)
Time: 05:08:18
(UTC+00:00)

Tiros 1 - Pass Details

Date: 18 February 2026
Orbit: 618 x 650 km, 48.4° (Epoch: 13 March)

Event Time Altitude Azimuth Distance (km) Brightness Sun altitude
Rises 08:21:42 0° 230° (SW) 2,906 10.4 15.5°
Reaches altitude 10° 08:24:07 10° 223° (SW) 1,996 9.7 15.8°
Maximum altitude 08:28:26 42° 153° (SSE) 889 9.1 16.3°
Drops below altitude 10° 08:32:44 10° 82° (E) 1,988 10.4 16.9°
Sets 08:35:08 0° 76° (ENE) 2,893 11.0 17.2°
